User: anonymous   Login
Location: El Corozo
(10.5833°N, 66.9667°W)
Time: 16:44:47
(UTC+00:00)
Language:

Centaur AC-72 - Orbit

View from above orbital plane
View from above orbital plane
View from above satellite
View from above satellite

Ground track
Ground track

The orbit data is extracted from the following two-line orbital elements,

1 21907U 92013B   24206.11545019 -.00000022  00000-0  00000-0 0  9999
2 21907  18.9271 158.8862 6937714 223.0576  61.3997  2.25608972266784
Epoch (UTC): 24 July 2024 02:46:14
Eccentricity: 0.6937714
inclination: 18.9271°
perigee height: 1142 km
apogee height: 35214 km
right ascension of ascending node: 158.8862°
argument of perigee: 223.0576°
revolutions per day: 2.25608972
mean anomaly at epoch: 61.3997°
orbit number at epoch: 26678

The dashed part of the orbit path shows where the satellite is in the earth's shadow,  

DLR